Location: Zagreb
(45.8000°N, 16.0000°E)
Time: 07:34:33
(UTC+01:00)

N. Korean satellite - Pass Details

Date: 03 December 2021
Orbit: 447 x 491 km, 97.3° (Epoch: 23 January)

Event Time Altitude Azimuth Distance (km) Brightness Sun altitude
Rises 06:17:56 0° 355° (N) 2,471 9.9 -10.4°
Reaches altitude 10° 06:20:32 10° 333° (NNW) 1,588 8.7 -9.9°
Maximum altitude 06:22:40 16° 294° (WNW) 1,262 8.0 -9.6°
Drops below altitude 10° 06:24:48 10° 255° (WSW) 1,575 8.7 -9.2°
Sets 06:27:22 0° 233° (SW) 2,440 9.8 -8.8°
